Weather History for KCQM - October, 2012

Change the Weather History Date:

Wednesday, October 10, 2012

  Actual Average Record
Temperature  
Mean Temperature 32 °F -  
Max Temperature 41 °F 53 °F 77 °F (2003)
Min Temperature 24 °F 33 °F 19 °F (2006)
Degree Days  
Heating Degree Days 32    
Moisture  
Dew Point 27 °F    
Average Humidity 82    
Maximum Humidity 100    
Minimum Humidity 53    
Precipitation  
Precipitation 0.01 in - - ()
Sea Level Pressure  
Sea Level Pressure 29.92 in    
Wind  
Wind Speed 5 mph (WSW)    
Max Wind Speed 13 mph    
Max Gust Speed 20 mph    
Visibility 9 miles    
Events Rain , Snow    
Averages and records for this station are not official NWS values.
T = Trace of Precipitation, MM = Missing Value Source: NWS Daily Summary

Daily Weather History Graph

Daily Weather History Graph

Search for Another Location

Airport or City:

Trip Planner

Search our weather history database for the weather conditions in past years. The results will help you decide how hot, cold, wet, or windy it might be!

Date:

Astronomy

Oct. 10, 2012 Rise Set
Actual Time 7:23 AM CDT 6:31 PM CDT
Civil Twilight 6:52 AM CDT 7:01 PM CDT
Nautical Twilight 6:16 AM CDT 7:37 PM CDT
Astronomical Twilight 5:40 AM CDT 8:13 PM CDT
Moon 1:38 AM CDT (10/10) 3:52 PM CDT (10/10)
Length of Visible Light 12h 09m
Length of Day
11h 07m
Waning Crescent, 27% of the Moon is Illuminated
Oct 10
Waning Crescent
Oct 15
New
Oct 21
First Quarter
Oct 29
Full
Nov 6
Last Quarter

Hourly Weather History & Observations

Time (CDT) Temp. Windchill Dew Point Humidity Pressure Visibility Wind Dir Wind Speed Gust Speed Precip Events Conditions
12:17 AM 30.2 °F 24.3 °F 28.4 °F 93% 29.87 in 10.0 mi West 5.8 mph - N/A   Overcast
12:36 AM 30.2 °F 23.4 °F 28.4 °F 93% 29.87 in 10.0 mi West 6.9 mph - N/A   Overcast
12:57 AM 30.2 °F 23.4 °F 28.4 °F 93% 29.87 in 10.0 mi West 6.9 mph - N/A   Mostly Cloudy
1:16 AM 28.4 °F 22.2 °F 26.6 °F 93% 29.87 in 10.0 mi West 5.8 mph - N/A   Scattered Clouds
1:36 AM 28.4 °F 23.3 °F 26.6 °F 93% 29.87 in 10.0 mi WNW 4.6 mph - N/A   Clear
1:57 AM 28.4 °F 22.2 °F 26.6 °F 93% 29.88 in 10.0 mi West 5.8 mph - N/A   Clear
2:16 AM 28.4 °F - 26.6 °F 93% 29.88 in 10.0 mi Calm Calm - N/A   Clear
2:37 AM 26.6 °F - 26.6 °F 100% 29.89 in 10.0 mi Calm Calm - N/A   Clear
2:57 AM 26.6 °F - 24.8 °F 93% 29.89 in 10.0 mi Calm Calm - N/A   Clear
3:16 AM 26.6 °F 22.6 °F 24.8 °F 93% 29.89 in 10.0 mi West 3.5 mph - N/A   Clear
3:37 AM 26.6 °F - 26.6 °F 100% 29.89 in 10.0 mi Calm Calm - N/A   Clear
3:57 AM 26.6 °F - 24.8 °F 93% 29.89 in 10.0 mi Calm Calm - N/A   Scattered Clouds
4:16 AM 24.8 °F 20.5 °F 24.8 °F 100% 29.89 in 10.0 mi West 3.5 mph - N/A   Clear
4:37 AM 24.8 °F 20.5 °F 24.8 °F 100% 29.90 in 10.0 mi West 3.5 mph - N/A   Clear
4:57 AM 24.8 °F - 24.8 °F 100% 29.91 in 10.0 mi Calm Calm - N/A   Scattered Clouds
5:16 AM 24.8 °F - 24.8 °F 100% 29.91 in 10.0 mi Calm Calm - N/A   Overcast
5:37 AM 26.6 °F 22.6 °F 26.6 °F 100% 29.91 in 10.0 mi West 3.5 mph - N/A   Mostly Cloudy
5:56 AM 26.6 °F 22.6 °F 24.8 °F 93% 29.91 in 10.0 mi West 3.5 mph - N/A   Mostly Cloudy
6:16 AM 26.6 °F - 24.8 °F 93% 29.92 in 10.0 mi Calm Calm - N/A   Scattered Clouds
6:37 AM 24.8 °F 20.5 °F 23.0 °F 93% 29.92 in 10.0 mi West 3.5 mph - N/A   Clear
6:57 AM 24.8 °F 20.5 °F 23.0 °F 93% 29.93 in 10.0 mi West 3.5 mph - N/A   Clear
7:16 AM 24.8 °F - 24.8 °F 100% 29.94 in 10.0 mi Calm Calm - N/A   Clear
7:37 AM 24.8 °F - 24.8 °F 100% 29.93 in 10.0 mi Calm Calm - N/A   Clear
7:57 AM 24.8 °F - 24.8 °F 100% 29.94 in 10.0 mi Calm Calm - N/A   Scattered Clouds
8:16 AM 26.6 °F 22.6 °F 26.6 °F 100% 29.94 in 10.0 mi WSW 3.5 mph - N/A   Overcast
8:37 AM 28.4 °F 24.6 °F 26.6 °F 93% 29.94 in 10.0 mi WSW 3.5 mph - N/A   Overcast
8:57 AM 28.4 °F 23.3 °F 28.4 °F 100% 29.94 in 10.0 mi WSW 4.6 mph - N/A   Overcast
9:16 AM 30.2 °F 25.4 °F 28.4 °F 93% 29.95 in 10.0 mi WSW 4.6 mph - N/A   Overcast
9:37 AM 30.2 °F 25.4 °F 28.4 °F 93% 29.95 in 10.0 mi WSW 4.6 mph - N/A   Overcast
9:56 AM 32.0 °F 28.7 °F 30.2 °F 93% 29.95 in 10.0 mi West 3.5 mph - N/A   Overcast
10:16 AM 32.0 °F 26.4 °F 30.2 °F 93% 29.95 in 10.0 mi West 5.8 mph - N/A   Overcast
10:37 AM 33.8 °F 29.6 °F 30.2 °F 87% 29.95 in 10.0 mi West 4.6 mph - N/A   Overcast
10:57 AM 35.6 °F 29.2 °F 30.2 °F 81% 29.96 in 10.0 mi West 8.1 mph - N/A   Overcast
11:16 AM 35.6 °F 28.6 °F 28.4 °F 75% 29.96 in 10.0 mi West 9.2 mph - N/A   Mostly Cloudy
11:57 AM 39.2 °F 32.5 °F 28.4 °F 65% 29.96 in 10.0 mi West 10.4 mph - N/A   Mostly Cloudy
12:16 PM 39.2 °F 33.6 °F 28.4 °F 65% 29.95 in 10.0 mi West 8.1 mph - N/A   Scattered Clouds
12:37 PM 39.2 °F 32.5 °F 26.6 °F 61% 29.95 in 10.0 mi West 10.4 mph - N/A   Scattered Clouds
12:56 PM 39.2 °F 31.6 °F 26.6 °F 61% 29.95 in 10.0 mi West 12.7 mph - N/A   Mostly Cloudy
1:17 PM 39.2 °F 31.6 °F 24.8 °F 56% 29.95 in 10.0 mi West 12.7 mph 19.6 mph N/A   Overcast
1:37 PM 39.2 °F 32.0 °F 24.8 °F 56% 29.94 in 10.0 mi West 11.5 mph 19.6 mph N/A   Overcast
1:56 PM 41.0 °F 34.7 °F 24.8 °F 53% 29.93 in 10.0 mi WNW 10.4 mph 17.3 mph N/A   Mostly Cloudy
2:17 PM 41.0 °F 34.3 °F 24.8 °F 53% 29.93 in 10.0 mi West 11.5 mph - N/A   Scattered Clouds
2:37 PM 41.0 °F 35.2 °F 24.8 °F 53% 29.93 in 10.0 mi WSW 9.2 mph - N/A   Mostly Cloudy
2:56 PM 41.0 °F 35.2 °F 24.8 °F 53% 29.93 in 10.0 mi West 9.2 mph 16.1 mph N/A   Mostly Cloudy
3:17 PM 41.0 °F 37.1 °F 24.8 °F 53% 29.93 in 10.0 mi WSW 5.8 mph - N/A   Mostly Cloudy
3:36 PM 41.0 °F 34.7 °F 24.8 °F 53% 29.93 in 10.0 mi West 10.4 mph - N/A   Scattered Clouds
3:56 PM 41.0 °F 35.8 °F 24.8 °F 53% 29.92 in 10.0 mi West 8.1 mph - N/A   Mostly Cloudy
4:17 PM 41.0 °F 36.4 °F 24.8 °F 53% 29.91 in 10.0 mi WSW 6.9 mph - N/A   Scattered Clouds
4:37 PM 41.0 °F 35.8 °F 24.8 °F 53% 29.91 in 10.0 mi SW 8.1 mph - N/A   Mostly Cloudy
4:56 PM 41.0 °F 35.8 °F 24.8 °F 53% 29.90 in 10.0 mi SW 8.1 mph - N/A   Overcast
5:17 PM 41.0 °F 38.0 °F 24.8 °F 53% 29.90 in 10.0 mi SW 4.6 mph - N/A   Overcast
5:37 PM 41.0 °F 39.0 °F 24.8 °F 53% 29.90 in 10.0 mi SW 3.5 mph - N/A   Overcast
5:56 PM 41.0 °F 36.4 °F 26.6 °F 57% 29.90 in 10.0 mi WSW 6.9 mph - N/A   Overcast
6:17 PM 39.2 °F 35.0 °F 26.6 °F 61% 29.90 in 10.0 mi SW 5.8 mph - N/A   Overcast
6:37 PM 39.2 °F 34.2 °F 26.6 °F 61% 29.90 in 10.0 mi WSW 6.9 mph - N/A   Overcast
6:56 PM 39.2 °F 35.0 °F 26.6 °F 61% 29.90 in 10.0 mi SW 5.8 mph - N/A   Overcast
7:17 PM 39.2 °F 31.6 °F 28.4 °F 65% 29.91 in 10.0 mi WSW 12.7 mph 19.6 mph N/A   Overcast
7:36 PM 39.2 °F 32.0 °F 28.4 °F 65% 29.92 in 10.0 mi WSW 11.5 mph 16.1 mph N/A   Overcast
7:56 PM 37.4 °F 32.1 °F 30.2 °F 75% 29.92 in 10.0 mi WSW 6.9 mph - N/A   Drizzle
8:17 PM 35.6 °F 30.7 °F 32.0 °F 87% 29.92 in 7.0 mi WSW 5.8 mph - N/A   Drizzle
8:57 PM 35.6 °F - 33.8 °F 93% 29.92 in 7.0 mi Calm Calm - N/A   Drizzle
9:17 PM 35.6 °F 31.7 °F 33.8 °F 93% 29.92 in 5.0 mi WSW 4.6 mph - N/A Rain Light Rain
9:36 PM 33.8 °F - 33.8 °F 100% 29.92 in 7.0 mi Calm Calm - N/A Rain Rain
9:57 PM 33.8 °F 30.8 °F 33.8 °F 100% 29.92 in 7.0 mi SW 3.5 mph - N/A Rain Light Rain
10:16 PM 33.8 °F - 33.8 °F 100% 29.92 in 7.0 mi Calm Calm - 0.01 in Rain Light Rain
10:36 PM 33.8 °F - 33.8 °F 100% 29.91 in 5.0 mi Calm Calm - 0.01 in   Overcast
10:57 PM 33.8 °F - 33.8 °F 100% 29.91 in 3.0 mi Calm Calm - N/A Snow Light Snow
11:16 PM 33.8 °F - 32.0 °F 93% 29.91 in 3.0 mi Calm Calm - N/A Snow Light Snow
11:36 PM 33.8 °F - 32.0 °F 93% 29.90 in 3.0 mi Calm Calm - N/A Snow Light Snow
11:57 PM 33.8 °F - 32.0 °F 93% 29.90 in 4.0 mi Calm Calm - N/A Snow Light Snow